{"data":{"norad_id":61915,"epoch":"2026-09-06T12:58:41.886048Z","epoch_age_seconds":1394984,"freshness":"OLD","line1":"1 61915U 24207D   26249.54076257  .09800687  90344-5  33313-2 0  9994","line2":"2 61915  42.9924 313.7492 0003585  41.1438 318.9719 16.24573324102687","mean_motion":16.24573324,"eccentricity":0.0003585,"inclination_deg":42.9924,"raan_deg":313.7492,"arg_perigee_deg":41.1438,"mean_anomaly_deg":318.9719,"bstar":0.0033313,"rev_number":10268,"period_min":88.638658454298,"perigee_km":204.80315590396,"apogee_km":209.52481671114,"semimajor_km":6585.3009863076,"source":"CELESTRAK","updated_at":"2026-09-08T09:01:20.789538Z"}}